Find OneWeb SL0683

NORAD ID: 56719 Int'l Des: 2023-068 Owner: ONEWEBN Country: UK Constellation: oneweb operational
LEOCIRCULARPOLARONEWEB_TYPE

現在のビュー

3D地球を読み込み中...

About OneWeb SL0683

OneWeb SL0683 (NORAD 56719) is a oneweb constellation satellite launched May 20, 2023 by ONEWEBN of UK. It operates in LEO, CIRCULAR, POLAR, ONEWEB_TYPE orbit with a mass of 148.00 kg.

OneWeb SL0683について

説明を読み込み中...

次回通過

Passes for default location (London). Set your location on the main map for personalized predictions.

高度履歴

Loading altitude history...

軌道要素

1 56719U 23068K 26195.58816736 .00000009 00000-0 -99701-5 0 9995
2 56719 87.8994 253.7365 0002248 93.7263 266.4124 13.15548158153029
Epoch: Jul 14, 2026 • Age: 8 hours

現在のステータス

高度 1212.6 km
遠地点 / 近地点 N/A
速度 7.25 km/s
衛星直下点 71.63°N, 0.51°E
打ち上げ日 May 20, 2023
運用期間 3.1 years
タイプ internet

技術仕様

分類 Payload
質量 148.00 kg
乾燥質量 140.00 kg
総質量 148.00 kg
長さ 1.30 m
直径 1.00 m
スパン 5.00 m
形状 Trapezoid+2 pan
製造者 ONEWUS
バスタイプ ARROW
フェーズステータス In Orbit
所有者/国 ONEWEBN/UK

Most Searched